Regional Weather Roundup
Issued by NWS

Home | Current Version | Previous Version | Text Only | Print | Product List | Glossary Off
Versions: 1 2 3 4 5 6 7 8 9 10 11 12 13 14 15 16 17 18 19 20 21 22 23 24 25 26 27 28 29 30 31 32 33 34 35 36 37 38 39 40 41 42 43 44 45 46 47 48 49 50

000
ASUS43 KLMK 240502
RWRKY
KENTUCKY REGIONAL WEATHER ROUNDUP
NATIONAL WEATHER SERVICE LOUISVILLE KY
100 AM EDT THU MAY 24 2018

NOTE "FAIR" INDICATES FEW OR NO CLOUDS BELOW 12,000 FEET
WITH NO SIGNIFICANT WEATHER AND/OR OBSTRUCTIONS TO VISIBILITY.

KYZ001>023-026-027-061>063-070>075-240600-
WESTERN AND SOUTH CENTRAL KENTUCKY

CITY           SKY/WX    TMP DP  RH WIND       PRES   REMARKS
PADUCAH        FAIR      70  67  90 CALM      30.09S
HENDERSON      NOT AVBL
OWENSBORO      FAIR      73  61  65 NE6       30.12S
HOPKINSVILLE   FAIR      73  66  80 NE3       30.09F
BOWLING GREEN  FAIR      70  66  87 CALM      30.11S
GLASGOW        NOT AVBL
$$

KYZ024-025-028>034-038-045-046-053-240600-
NORTH CENTRAL KENTUCKY

CITY           SKY/WX    TMP DP  RH WIND       PRES   REMARKS
LOUISVILLE/SDF FAIR      73  60  63 E8        30.14S
LOUISVILLE/LOU FAIR      70  61  73 NE6       30.15S
FORT KNOX      FAIR      68  59  74 NE6       30.15S
$$

KYZ035>037-039>044-047>052-055>060-089>105-240600-
NORTHEAST KENTUCKY

CITY           SKY/WX    TMP DP  RH WIND       PRES   REMARKS
LEXINGTON      FAIR      64  58  80 N7        30.17S
COVINGTON      FAIR      67  56  67 E7        30.19R
FRANKFORT      FAIR      68  57  68 NE7       30.16R
$$

KYZ054-064>069-076>088-106>120-240600-
SOUTHEAST KENTUCKY

CITY           SKY/WX    TMP DP  RH WIND       PRES   REMARKS
JACKSON        FAIR      65  59  81 CALM      30.18R
LONDON         FAIR      67  63  87 N5        30.15S
SOMERSET       NOT AVBL
MIDDLESBORO    FAIR      65  65 100 CALM      30.15S
MONTICELLO     FAIR      67  63  87 VRB6      30.15F
$$





USA.gov is the U.S. government's official web portal to all federal, state and local government web resources and services.